Deming Municipal Airport Deming US
ICAO: KDMN
IATA: DMN
Category: Medium
Scheduled Services: No

Elevation: 4314 ft
TransAlt. 18000 ft.

Airport Communications:
ASOS:118.525
ALBUQUERQUE CNTR:128.2
ALBUQUERQUE RDO:122.2
CTAF/UNICOM:122.8

KDMN Zoom In..

Runways:

(A) RW 04 length 5675 ft width 60 ft
---- / hdg 42

(B) RW 08 length 8018 ft width 75 ft
---- / hdg 80

(C) RW 22 length 5675 ft width 60 ft
---- / hdg 222

(D) RW 26 length 8018 ft width 75 ft
---- / hdg 260

Location; KDMN
Day. 23 / Time. 09.53 Zulu
* Altimeter: 30.05
* Temperature: 25° c. 77°f.
* Wind from: 210° Speed 08 kn.
Dewpoint: 11° c.
Visibility: 10 Statute Miles.
Clouds: Clear (automated report).

KDMN 230953Z AUTO 21008KT 10SM CLR 25/11 A3005 RMK AO2 SLP080 T02500111


Wind From 210°
Speed 08 kn.

 
 
jpsmedia.com for Web Design worldairports.se 2018   terms of use